Renton, WA
on Monday, January 14, 2013

Monday
Previous Day Next Day
Daily Summary
 ActualAverage (KSEA)Record (KSEA)
Temperature
Mean Temperature °F 42°F  
Max Temperature 37°F 47°F 59°F (1968)
Min Temperature 28°F 37°F 8°F (1950)
Degree Days
Heating Degree Days 32 23  
Month to date heating degree days 330  
Since 1 July heating degree days 2268  
Cooling Degree Days 0 0  
Month to date cooling degree days 0  
Year to date cooling degree days 0  
Moisture
Dew Point 27°F   
Average Humidity 77    
Maximum Humidity 85    
Minimum Humidity 62    
Precipitation
Precipitation 0.00 in 0.19 in 1.61 in (1988)
Month to date precipitation 2.64  
Year to date precipitation 2.64  
Snow
Snow 0.00 in in 4.00 in (1950)
Month to date snowfall  
Since 1 July snowfall  
Snow Depth in   
Wind
Wind Speed 3 mph   
Max Wind Speed 6 mph   
Max Gust Speed mph   
Visibility 9 miles   
Events     

Key: T is trace of precipitation, MM is missing value
Source: NWS Daily Summary
Time(PST)TemperatureDew PointHumidity Pressure Visibility Wind DirectionWind SpeedGust SpeedPrecipitationEvents Conditions
12:53 AM 28.9°F 25.0°F 85% 30.50 in 7.0 miles SE 3.5 mph - N/A   Overcast
1:53 AM 28.9°F 25.0°F 85% 30.51 in 8.0 miles SSE 3.5 mph - N/A   Overcast
2:53 AM 28.9°F 25.0°F 85% 30.51 in 8.0 miles SSE 4.6 mph - N/A   Overcast
3:53 AM 28.9°F 25.0°F 85% 30.52 in 7.0 miles SSE 4.6 mph - N/A   Overcast
4:53 AM 30.0°F 25.0°F 82% 30.51 in 8.0 miles SE 3.5 mph - N/A   Overcast
5:53 AM 28.9°F 25.0°F 85% 30.52 in 8.0 miles SSE 3.5 mph - N/A   Overcast
6:53 AM 28.9°F 25.0°F 85% 30.51 in 8.0 miles SSE 5.8 mph - N/A   Overcast
7:53 AM 30.0°F 25.0°F 82% 30.53 in 10.0 miles South 3.5 mph - N/A   Overcast
8:53 AM 30.0°F 25.0°F 82% 30.53 in 9.0 miles South 3.5 mph - N/A   Overcast
9:53 AM 30.9°F 26.1°F 82% 30.54 in 9.0 miles South 3.5 mph - N/A   Overcast
10:53 AM 32.0°F 26.1°F 79% 30.54 in 9.0 miles SSE 3.5 mph - N/A   Overcast
11:53 AM 34.0°F 27.0°F 75% 30.53 in 8.0 miles Calm Calm - N/A   Overcast
12:53 PM 35.1°F 27.0°F 72% 30.53 in 9.0 miles Calm Calm - N/A   Overcast
1:53 PM 37.0°F 26.1°F 65% 30.53 in 10.0 miles East 3.5 mph - N/A   Overcast
2:53 PM 37.0°F 26.1°F 65% 30.54 in 10.0 miles Calm Calm - N/A   Overcast
3:53 PM 37.9°F 26.1°F 62% 30.54 in 10.0 miles East 3.5 mph - N/A   Overcast
4:53 PM 37.9°F 26.1°F 62% 30.54 in 10.0 miles Calm Calm - N/A   Overcast
5:21 PM 37.4°F 26.6°F 65% 30.54 in 10.0 miles Calm Calm - N/A   Overcast
5:51 PM 37.4°F 28.4°F 70% 30.53 in 10.0 miles Calm Calm - N/A   Overcast
5:53 PM 37.0°F 28.0°F 70% 30.55 in 10.0 miles Calm Calm - N/A   Overcast
6:48 PM 35.6°F 26.6°F 70% 30.54 in 10.0 miles Calm Calm - N/A   Mostly Cloudy
6:53 PM 35.1°F 27.0°F 72% 30.56 in 10.0 miles Calm Calm - N/A   Mostly Cloudy
7:53 PM 35.1°F 30.9°F 85% 30.57 in 10.0 miles Calm Calm - N/A   Overcast
8:53 PM 35.1°F 30.0°F 82% 30.58 in 10.0 miles Calm Calm - N/A   Overcast
9:46 PM 35.6°F 30.2°F 81% 30.56 in 10.0 miles Calm Calm - N/A   Overcast
9:53 PM 35.1°F 30.0°F 82% 30.57 in 10.0 miles Calm Calm - N/A   Overcast
10:53 PM 35.1°F 30.0°F 82% 30.58 in 10.0 miles Calm Calm - N/A   Overcast
11:53 PM 35.1°F 30.9°F 85% 30.59 in 10.0 miles Calm Calm - N/A   Overcast
Moon Phase
Jan. 14 Jan. 18 Jan. 26 Feb. 03 Feb. 10
Sunrise:07:52 AM (PST) Moon Rise:09:11 AM (PST)1/14
Sunset:04:44 PM (PST) Moon Set:08:55 PM (PST)1/14

Copyright © 2014 The Weather Underground, Inc.